SCP
0 0 0 0 0 0 0 0 0 0 0 0 0 0 0 0 0 0 0 0 0 0 0 0 0 0 0 0 0 0 0 0 0 0 0 0 0 0 0 0 0 0 0 0
0 0 0 0 0 0 0 0 0 0 0 0 0 0 0 0 0 0 0 0 0 0 0 0 0 0 0 0 0 0 0 0 0 0 0 0 0 0 0 0 0 0 0 0
0 0 0 0 0 0 0 0 0 0 0 0 0 0 0 0 0 0 0 0 0 0 0 0 0 0 0 0 0 0 0 0 0 0 0 0 0 0 0 0 0 0 0 0
0 0 0 0 0 0 0 0 0 0 0 0 0 0 0 0 0 0 0 0 0 0 0 0 0 0 0 0 0 0 0 0 0 0 0 0 0 0 0 0 0 0 0 0
0 0 0 0 0 0 0 0 0 0 0 0 0 0 0 0 0 0 0 0 0 0 0 0 0 0 0 0 0 0 0 0 0 0 0 0 0 0 0 0 0 0 0 0
0 0 0 0 0 0 0 0 0 0 0 0 0 0 0 0 0 0 0 0 0 0 0 0 0 0 0 0 0 0 0 0 0 0 0 0 0 0 0 0 0 0 0 0
0 0 0 0 0 0 0 0 0 0 0 0 0 0 0 0 0 0 0 0 0 0 0 0 0 0 0 0 0 0 0 0 0 0 0 0 0 0 0 0 0 0 0 0
0 0 0 0 0 0 0 0 0 0 0 0 0 0 0 0 0 0 0 0 0 0 0 0 0 0 0 0 0 0 0 0 0 0 0 0 0 0 0 0 0 0 0 0
0 0 0 0 0 0 0 0 0 0 0 0 0 0 0 0 0 0 0 0 0 0 0 0 0 0 0 0 0 0 0 0 0 0 0 0 0 0 0 0 0 0 0 0
0 0 0 0 0 0 0 0 0 0 0 0 0 0 0 0 0 0 0 0 0 0 0 0 0 0 0 0 0 0 0 0 0 0 0 0 0 0 0 0 0 0 0 0
0 0 0 0 0 0 0 0 0 0 0 0 0 0 0 0 0 0 0 0 0 0 0 0 0 0 0 0 0 0 0 0 0 0 0 0 0 0 0 0 0 0 0 0
0 0 0 0 0 0 0 0 0 0 0 0 0 0 0 0 0 0 0 0 0 0 0 0 0 0 0 0 0 0 0 0 0 0 0 0 0 0 0 0 0 0 0 0
0 0 0 0 0 0 0 0 0 0 0 0 0 0 0 0 0 0 0 0 0 0 0 0 0 0 0 0 0 0 0 0 0 0 0 0 0 0 0 0 0 0 0 0
0 0 0 0 0 0 0 0 0 0 0 0 0 0 0 0 0 0 0 0 0 0 0 0 0 0 0 0 0 0 0 0 0 0 0 0 0 0 0 0 0 0 0 0
0 0 0 0 0 0 0 0 0 0 0 0 0 0 0 0 0 0 0 0 0 0 0 0 0 0 0 0 0 0 0 0 0 0 0 0 0 0 0 0 0 0 0 0
0 0 0 0 0 0 0 0 0 0 0 0 0 0 0 0 0 0 0 0 0 0 0 0 0 0 0 0 0 0 0 0 0 0 0 0 0 0 0 0 0 0 0 0
0 0 0 0 0 0 0 0 0 0 0 0 0 0 0 0 0 0 0 0 0 0 0 0 0 0 0 0 0 0 0 0 0 0 0 0 0 0 0 0 0 0 0 0
0 0 0 0 0 0 0 0 0 0 0 0 0 0 0 0 0 0 0 0 0 0 0 0 0 0 0 0 0 0 0 0 0 0 0 0 0 0 0 0 0 0 0 0
0 0 0 0 0 0 0 0 0 0 0 0 0 0 0 0 0 0 0 0 0 0 0 0 0 0 0 0 0 0 0 0 0 0 0 0 0 0 0 0 0 0 0 0
0 0 0 0 0 0 0 0 0 0 0 0 0 0 0 0 0 0 0 0 0 0 0 0 0 0 0 0 0 0 0 0 0 0 0 0 0 0 0 0 0 0 0 0
0 0 0 0 0 0 0 0 0 0 0 0 0 0 0 0 0 0 0 0 0 0 0 0 0 0 0 0 0 0 0 0 0 0 0 0 0 0 0 0 0 0 0 0
0 0 0 0 0 0 0 0 0 0 0 0 0 0 0 0 0 0 0 0 0 0 0 0 0 0 0 0 0 0 0 0 0 0 0 0 0 0 0 0 0 0 0 0
0 0 0 0 0 0 0 0 0 0 0 0 0 0 0 0 0 0 0 0 0 0 0 0 0 0 0 0 0 0 0 0 0 0 0 0 0 0 0 0 0 0 0 0
0 0 0 0 0 0 0 0 0 0 0 0 0 0 0 0 0 0 0 0 0 0 0 0 0 0 0 0 0 0 0 0 0 0 0 0 0 0 0 0 0 0 0 0
0 0 0 0 0 0 0 0 0 0 0 0 0 0 0 0 0 0 0 0 0 0 0 0 0 0 0 0 0 0 0 0 0 0 0 0 0 0 0 0 0 0 0 0
0 0 0 0 0 0 0 0 0 0 0 0 0 0 0 0 0 0 0 0 0 0 0 0 0 0 0 0 0 0 0 0 0 0 0 0 0 0 0 0 0 0 0 0
Wind_Speed
2 4 4 3 3 2 3 4 3 2 1 4 5 5 4 5 7 8 8 7 7 6 5 3 3 3 4 4 4 4 4 3 3 2 2 3 3 2 2 1 2 2 2 2
5 4 2 2 3 3 5 5 3 1 1 4 5 7 5 5 6 7 8 7 7 7 6 5 4 5 5 4 4 4 4 4 3 2 2 2 2 2 2 1 1 1 2 2
5 2 3 4 5 5 5 5 3 3 2 5 5 6 5 4 5 5 6 7 7 6 6 6 5 6 5 5 5 4 4 4 4 4 3 3 3 2 2 2 1 1 1 2
4 2 4 5 4 5 4 3 4 4 5 3 5 5 4 5 5 6 6 6 6 6 6 5 5 6 6 5 5 5 5 5 4 5 4 4 3 2 2 1 2 2 2 1
3 3 4 5 3 5 1 1 4 6 6 6 6 7 3 5 6 6 5 5 5 6 6 6 6 6 5 5 5 4 4 4 5 5 4 4 3 2 2 2 2 2 2 1
2 2 3 2 1 2 3 3 4 5 6 7 4 6 4 3 4 4 4 5 5 5 5 5 5 5 5 5 5 5 4 4 4 5 5 4 3 3 3 2 2 2 2 1
5 5 3 3 3 4 5 5 4 5 6 4 2 6 5 0 2 3 4 4 4 4 5 5 5 6 6 6 5 5 6 5 5 5 5 4 4 4 3 3 2 2 2 2
6 6 4 3 5 5 5 7 5 4 4 3 3 7 2 0 1 2 3 3 3 4 4 5 5 6 6 6 6 6 6 5 5 6 5 5 4 3 2 3 2 2 2 2
5 4 2 2 3 5 5 6 5 6 5 6 5 4 3 3 3 3 2 2 3 4 4 4 5 5 6 6 6 6 6 5 6 5 5 5 4 4 3 3 2 2 2 1
5 5 3 3 3 1 4 3 5 6 5 6 5 6 3 2 3 3 3 3 3 3 4 4 4 4 5 5 5 6 6 5 5 5 4 4 4 4 3 2 2 2 2 2
6 7 4 5 6 5 5 6 6 5 6 6 5 2 1 2 3 4 3 3 3 3 4 4 3 4 4 5 5 5 5 5 4 4 4 4 4 3 3 2 2 2 2 3
5 6 7 6 2 3 6 7 8 7 7 7 7 3 3 2 3 4 3 2 2 2 3 3 3 3 4 4 4 4 4 5 4 4 4 4 4 3 3 3 2 2 2 3
3 6 7 6 6 5 5 6 8 8 8 8 9 5 3 2 3 3 3 3 3 3 3 3 3 3 4 4 4 4 4 4 4 4 4 4 4 4 3 3 3 2 2 2
5 7 8 8 5 3 6 6 7 9 9 10 11 10 6 5 5 4 3 3 3 3 3 3 3 3 4 4 4 4 4 4 4 4 4 4 4 4 3 3 3 3 2 3
5 8 9 9 7 5 7 8 10 12 13 12 11 11 10 8 7 5 3 3 3 3 3 3 3 3 4 4 3 3 4 4 4 4 4 4 4 3 3 3 3 3 3 3
5 7 8 10 8 9 10 10 11 12 13 14 14 13 9 8 5 3 3 4 4 4 3 3 3 3 4 4 4 4 4 4 4 5 4 4 4 4 4 4 3 3 3 3
5 7 8 8 7 9 11 10 11 10 10 11 12 11 7 6 5 5 4 4 4 4 4 3 3 4 4 4 4 4 4 4 5 5 4 4 4 4 4 3 3 3 3 3
7 8 6 7 7 11 4 2 7 10 10 10 9 8 7 7 6 4 4 4 4 3 3 3 3 3 4 3 3 3 3 4 4 4 4 4 4 4 4 4 4 4 3 3
8 7 6 6 9 10 6 3 5 8 8 6 8 8 6 4 4 4 3 3 3 3 3 3 3 4 4 4 3 3 4 4 4 4 4 4 4 4 4 4 4 4 3 3
6 8 7 7 9 9 3 0 2 6 8 3 5 6 5 4 6 3 1 3 3 2 2 2 2 3 3 4 4 4 4 4 4 4 4 3 4 4 4 4 4 3 3 3
7 8 10 11 10 8 1 1 3 6 3 2 4 5 5 7 6 3 1 2 3 2 2 2 3 3 3 3 4 4 4 3 3 2 3 3 3 4 4 4 4 4 3 3
8 8 9 9 10 7 3 4 5 4 4 3 5 5 5 6 4 2 2 2 2 2 2 2 3 3 3 4 4 4 4 2 2 2 3 3 3 3 3 4 4 4 4 4
8 7 5 7 6 2 3 5 4 5 5 5 5 5 5 5 5 4 3 2 3 3 3 3 3 3 3 4 4 4 3 2 3 3 3 3 3 3 3 4 4 4 4 4
5 4 7 8 7 6 5 6 6 6 6 6 5 5 5 5 5 5 4 3 3 3 3 3 3 3 3 3 3 3 2 3 4 4 3 3 3 3 3 3 3 4 4 4
6 5 7 9 8 6 6 6 6 6 6 6 5 4 5 6 6 5 4 3 3 3 3 3 3 3 3 3 3 3 2 3 4 4 3 3 3 3 3 2 2 3 3 3
7 8 8 8 7 7 7 6 6 6 6 5 5 4 4 5 5 5 4 3 3 3 3 3 3 3 2 3 3 3 3 4 4 3 3 3 2 2 2 2 2 2 3 2
Wind_Direction
186 202 192 189 224 267 228 227 236 256 228 249 252 259 249 226 222 221 214 210 212 213 209 196 196 187 186 186 186 174 173 165 159 158 165 156 146 134 125 115 110 110 99 92
188 200 195 194 189 213 219 226 237 230 175 252 262 264 253 229 229 229 221 215 218 214 206 194 197 192 194 187 193 185 179 173 168 165 162 150 140 135 120 124 119 114 118 109
211 135 160 195 202 219 229 237 249 262 252 223 255 244 217 204 217 222 225 225 224 221 217 203 200 196 191 192 191 188 181 176 172 166 158 150 143 149 149 147 142 142 137 130
212 179 193 210 221 239 240 241 237 240 244 231 248 264 225 209 210 208 215 215 221 219 221 212 202 196 189 188 187 189 183 180 174 170 171 168 168 163 163 158 149 161 153 150
183 188 210 223 238 244 268 241 231 240 252 252 230 257 226 191 214 209 209 214 219 218 215 210 202 194 186 178 181 188 184 183 180 176 173 189 187 175 168 164 159 169 152 159
211 198 242 246 208 208 169 192 205 221 239 243 229 251 251 194 227 225 216 214 212 210 206 203 193 185 176 170 175 182 187 185 184 183 185 195 191 189 183 187 184 188 171 176
206 197 191 216 199 177 215 236 232 217 218 236 183 249 256 268 251 252 245 224 213 205 201 190 185 184 177 175 175 181 186 186 186 189 191 195 201 203 203 204 205 212 197 190
223 211 191 215 243 236 227 243 258 265 261 267 224 245 250 22 271 237 236 223 203 197 194 189 188 187 179 182 181 183 185 186 185 190 192 193 196 205 207 220 229 227 229 213
241 225 161 228 255 245 224 229 268 279 276 261 232 242 246 211 225 217 216 219 207 195 193 190 189 191 184 187 189 188 187 187 187 192 193 191 193 199 201 207 219 229 230 219
261 249 203 175 190 235 268 219 215 239 260 258 249 249 251 227 243 245 247 242 221 198 192 190 193 195 189 187 191 190 189 190 190 192 194 192 196 196 199 196 199 208 208 200
248 246 215 200 222 228 201 210 226 235 259 272 271 251 17 310 298 270 252 243 224 205 193 183 184 189 187 183 187 191 190 189 186 192 192 191 190 192 190 194 203 202 193 198
235 258 248 235 216 294 252 241 231 242 238 249 272 278 75 329 312 291 270 239 218 202 188 178 173 177 179 179 189 198 194 192 188 191 192 191 186 186 191 195 200 200 197 204
215 244 247 223 194 195 230 237 241 251 256 248 253 255 97 320 312 302 275 231 202 187 183 174 164 170 170 173 186 195 197 193 186 187 193 190 187 190 199 203 202 202 202 209
248 247 253 260 284 249 239 238 237 238 248 252 252 269 273 284 292 296 270 235 208 190 184 180 169 170 168 170 179 191 192 191 183 184 193 198 196 197 206 207 206 208 210 215
242 253 256 267 269 260 258 254 240 239 247 258 268 271 280 288 289 283 248 215 203 195 187 184 186 180 171 171 174 187 190 190 186 190 197 202 203 202 205 205 212 215 219 223
243 256 257 255 249 254 254 257 251 247 250 257 266 268 277 287 290 273 230 206 210 210 203 196 191 187 186 182 181 185 191 192 194 199 204 205 204 200 207 211 209 213 223 232
228 243 254 257 250 255 249 245 243 245 242 253 261 272 280 270 259 253 235 217 220 224 213 208 203 193 192 191 187 191 191 191 200 204 206 204 205 205 206 207 206 210 217 224
235 237 249 263 253 246 252 246 241 247 249 252 266 278 278 273 269 260 243 230 231 228 221 211 209 197 193 188 184 184 186 194 202 206 205 203 207 210 210 209 211 217 219 216
237 234 239 249 256 260 241 226 236 242 249 260 263 270 277 290 271 243 230 238 241 232 232 226 213 206 191 183 185 184 185 191 202 209 211 209 211 212 213 213 213 217 219 219
215 230 239 242 255 259 257 237 248 251 248 267 269 267 265 253 259 259 233 233 237 230 218 215 212 196 188 183 187 192 191 194 206 214 221 219 217 217 220 222 220 215 214 217
203 216 229 240 250 260 303 78 190 236 290 334 280 270 251 248 273 304 257 228 228 224 211 194 193 190 188 188 194 203 203 207 211 214 222 224 221 223 225 224 218 213 210 213
223 220 223 231 241 246 133 163 220 286 324 302 292 283 265 264 280 277 244 216 208 208 198 195 193 193 185 189 199 210 216 215 209 206 213 222 224 224 221 218 218 215 210 216
231 237 241 234 249 316 204 235 273 304 293 296 293 294 277 264 264 258 247 223 208 206 199 200 202 191 188 193 202 216 217 212 209 207 213 222 229 228 224 217 217 218 217 219
228 242 245 249 251 257 254 260 269 278 285 293 292 289 270 261 261 252 243 227 211 206 199 199 199 196 199 204 208 219 217 215 213 215 221 225 230 232 230 229 228 226 219 218
241 221 239 252 261 264 253 260 272 276 280 285 286 280 265 260 255 245 237 223 213 205 202 200 202 207 209 209 214 218 213 215 217 222 227 229 233 241 241 237 248 247 242 243
228 229 238 252 261 267 276 280 276 272 273 276 278 280 268 256 253 246 235 222 212 206 206 205 204 211 224 217 218 225 219 218 221 224 227 231 229 232 237 240 240 277 268 252